Location: Table Rock
(44.3339°N, 118.3154°W)
Time: 03:34:34
(UTC-07:00)

Daily predictions for brighter satellites

Satellite Brightness Start Highest point End
(mag) Time Altitude Azimuth Time Altitude Azimuth Time Altitude Azimuth
CZ-4C R/B 4.4 02:15:20 10° NNW 02:26:04 23° E 02:28:58 10° ESE
ATLAS 2AS CENTAUR R/B 3.4 02:47:44 59° NE 02:47:44 59° NE 02:54:09 10° NE
ATLAS 5 CENTAUR R/B 4.5 02:52:35 10° NNW 02:57:03 22° NNE 03:01:49 10° E
Nadezhda 3 Rocket 4.4 03:24:07 60° NE 03:24:07 60° NE 03:29:25 10° NNE
Cosmos 2219 Rocket 3.6 03:20:59 10° N 03:26:12 36° NE 03:31:24 10° ESE
CZ-2D R/B 3.0 03:28:21 10° NNE 03:32:06 45° NE 03:32:06 45° NE
Lacrosse 5 rocket 3.4 03:37:11 29° ENE 03:37:11 29° ENE 03:39:29 10° NE
Cosmos 2344 4.0 03:36:25 46° SSE 03:38:07 54° ESE 03:46:25 10° NE
ARIANE 5 R/B 3.6 03:37:35 10° NNE 03:40:48 39° NNE 03:40:48 39° NNE
SL-16 R/B 3.3 03:48:05 41° NNW 03:48:05 41° NNW 03:52:05 10° NNW
Cosmos 2333 Rocket 3.0 03:53:37 10° NNW 03:59:11 49° ENE 04:04:41 10° SE
Lacrosse 5 3.7 03:59:41 21° SE 04:00:29 22° ESE 04:04:22 10° ENE
Meteor 2-14 Rocket 4.3 03:58:48 10° N 04:04:41 79° WNW 04:04:41 79° WNW
Resurs 1-4 Rocket 2.5 04:00:50 10° N 04:05:07 54° NNW 04:05:07 54° NNW
Cosmos 1821 Rocket 3.9 04:03:07 10° N 04:09:29 76° W 04:10:11 68° SSW
CZ-4C R/B 2.9 04:11:39 55° SSW 04:11:39 55° SSW 04:18:22 10° SSE
Cosmos 1605 Rocket 4.2 04:08:18 10° N 04:14:26 70° E 04:20:37 10° SSE
Cosmos 1934 Rocket 3.8 04:08:53 10° N 04:15:13 83° W 04:17:29 42° S
NOSS 3-4 (A) 4.3 04:13:49 30° S 04:16:32 46° ESE 04:22:43 10° NE
NOSS 3-4 (C) 4.3 04:13:53 29° S 04:16:38 46° ESE 04:22:49 10° NE
Meteor 1-12 Rocket 4.2 04:12:01 10° NNW 04:17:45 67° W 04:17:45 67° W
SL-24 R/B 4.4 04:17:38 61° SSE 04:18:31 83° E 04:23:25 10° N
Cosmos 2084 4.1 04:20:39 46° E 04:20:39 46° E 04:23:38 10° NE
Tiangong 1 3.9 04:26:32 14° ESE 04:26:32 14° ESE 04:27:18 10° ESE
NOSS 0 Rocket 3.9 04:18:56 10° NNW 04:25:12 84° ENE 04:31:27 10° SSE
CZ-4B R/B 3.8 04:20:23 10° NNE 04:25:39 52° E 04:29:47 17° S
CZ-2C R/B 3.8 04:25:16 22° SSE 04:28:08 77° ENE 04:32:47 10° N
MOZ.5/SAFIR/RUBIN 5/SL-8 3.6 04:28:02 74° S 04:28:26 83° WSW 04:33:14 10° NNW
Cosmos 2237 Rocket 2.5 04:23:25 10° NNW 04:29:05 68° ENE 04:34:40 10° SE
ARGOS Delta rocket 4.4 04:24:55 10° N 04:28:44 45° NW 04:28:44 45° NW
Okean O Rocket 1.7 04:26:20 10° NNE 04:30:46 72° ESE 04:31:35 55° SSE
UNKNOWN OBJECT B 4.3 04:27:36 10° N 04:29:39 27° NNW 04:29:39 27° NNW
Meteor 1-13 Rocket 4.5 04:29:50 20° S 04:33:59 70° E 04:39:43 10° NNE
EXPRESS MD2 4.0 04:35:32 38° NNE 04:35:36 38° NNE 04:39:51 10° E
Cosmos 968 Rocket 3.7 04:36:33 50° WNW 04:36:33 50° WNW 04:41:34 10° NNE
Okean 1 4.5 04:38:10 32° NNW 04:38:10 32° NNW 04:40:38 10° N
Gbstr 26 Del rocket 4.3 04:33:54 33° WNW 04:37:26 67° SW 04:45:26 10° SE
ATLAS 2AS CENTAUR R/B 3.9 04:35:11 28° WNW 04:37:54 35° NNW 04:45:15 10° NNE
Cosmos 1025 Rocket 3.9 04:36:13 16° SSE 04:39:24 49° E 04:43:35 10° NNE
Cosmos 1980 3.6 04:36:34 10° NNW 04:42:18 89° SW 04:47:58 10° SSE
Cosmos 2219 3.7 04:41:56 40° WNW 04:42:24 41° WNW 04:47:43 10° NNE
Cosmos 923 Rocket 3.9 04:37:08 10° NNW 04:42:31 83° WSW 04:47:52 10° SSE
ATLAS 5 CENTAUR R/B 2.5 04:36:40 10° NW 04:42:40 78° NE 04:49:07 10° SE
Cosmos 1461 3.9 04:44:19 35° NW 04:44:19 35° NW 04:48:04 10° NNE
Cosmos 1606 Rocket 4.3 04:41:11 10° N 04:45:30 52° ENE 04:49:45 10° SSE
Cosmos 1743 2.6 04:43:08 10° N 04:46:59 85° E 04:49:02 26° S
SL-16 R/B 3.4 04:41:40 10° NNW 04:47:07 44° ENE 04:52:31 10° SE
PSLV R/B 3.9 04:48:23 10° N 04:52:26 61° WNW 04:52:47 58° W
COS B Rocket 4.1 04:54:14 26° E 04:54:35 28° E 04:56:42 10° NNE
Cosmos 1726 Rocket 4.1 04:52:58 10° N 04:57:20 59° E 05:01:39 10° SSE
CZ-4B R/B 3.0 04:53:20 10° N 04:57:40 81° WNW 05:00:05 27° SSW
Okean 1-7 Rocket 3.6 04:56:50 48° WSW 04:57:41 57° W 05:02:03 10° N
Cosmos 2227 Rocket 2.1 04:59:05 22° SSW 05:02:53 89° WNW 05:08:36 10° NNE
Cosmos 773 Rocket 4.3 04:59:57 10° NW 05:04:47 39° WSW 05:09:34 10° S
ASTRO F (AKARI) 4.2 05:02:21 10° SSE 05:05:29 84° ENE 05:08:44 10° NNW
NOSS 3-2 (A) 4.0 04:58:09 10° NW 05:05:30 60° WSW 05:13:23 10° SSE
ADEOS II 2.6 05:01:44 10° NNE 05:06:58 61° E 05:12:09 10° S
Cosmos 1892 Rocket 4.1 05:03:43 10° S 05:08:08 63° E 05:12:35 10° NNE
Cosmos 2219 Rocket 2.6 05:04:58 10° NW 05:10:10 38° WSW 05:15:21 10° S
Cosmos 2297 Rocket 2.3 05:07:18 12° SSW 05:12:37 80° ESE 05:18:18 10° NNE
CZ-2D R/B 3.5 05:09:32 10° NNW 05:13:09 19° WNW 05:13:26 19° WNW
Lacrosse 5 rocket 2.8 05:12:56 23° WNW 05:14:35 29° NNW 05:18:30 10° NE
Okean 2 3.7 05:10:46 10° S 05:14:53 68° E 05:19:02 10° NNE
PSLV R/B 3.5 05:13:07 10° NNE 05:17:30 89° E 05:21:48 10° SSW
Meteor 1-15 Rocket 4.3 05:14:48 10° N 05:20:24 81° E 05:26:00 10° SSE
CZ-4B DEB 4.2 05:15:09 10° N 05:20:32 59° WNW 05:25:54 10° SSW
Cosmos 220 Rocket 3.8 05:17:47 20° SSW 05:20:35 70° WNW 05:24:49 10° NNE
ARIANE 5 R/B 4.4 05:18:50 10° NNW 05:21:03 13° WNW 05:21:07 13° WNW
Meteor 1-31 Rocket 4.0 05:20:03 10° NNE 05:23:48 44° E 05:27:33 10° S
MOS 1 Rocket 4.2 05:19:37 10° NNE 05:24:15 53° E 05:29:08 10° S
Cosmos 1727 Rocket 4.3 05:21:08 11° SSW 05:26:52 46° WNW 05:32:56 10° N
OE (NEXTSAT) 4.4 05:25:06 27° WNW 05:26:59 86° NNE 05:30:37 10° ESE
Cosmos 2016 Rocket 4.2 05:22:37 10° N 05:29:02 77° E 05:35:19 10° SSE
Okean-O 2.6 05:26:01 10° NNE 05:30:30 84° WNW 05:34:56 10° SSW
Feng Yun 1-1 Rocket 4.4 05:25:11 10° NNE 05:30:50 84° ESE 05:36:36 10° SSW
Cosmos 2173 Rocket 3.9 05:29:04 10° NNW 05:35:08 72° W 05:41:13 10° S
OTV 4 2.3 05:35:21 15° SSW 05:35:36 15° SSW 05:37:15 10° SSE
Cosmos 2228 3.1 05:31:11 10° N 05:35:38 83° E 05:40:00 10° S
Cosmos 2112 Rocket 4.3 05:30:53 10° NNW 05:35:54 43° WSW 05:40:50 10° S
Cosmos 1680 Rocket 4.1 05:36:24 10° NW 05:41:06 33° W 05:45:45 10° SSW
Cosmos 2082 3.9 05:36:36 13° SW 05:41:30 50° WNW 05:46:58 10° NNE
NOSS 3-2 (C) 4.3 05:34:59 10° NW 05:42:05 45° WSW 05:49:38 10° S
Lacrosse 5 1.9 05:38:55 16° WSW 05:43:01 71° NW 05:48:06 10° NE
Cosmos 2333 Rocket 3.1 05:38:27 10° NW 05:43:08 27° WSW 05:47:46 10° SSW
Cosmos 2058 Rocket 3.0 05:38:51 10° NNW 05:43:09 58° W 05:47:25 10° S
Resurs 1-4 Rocket 4.1 05:43:57 10° NW 05:44:57 11° NW 05:45:58 10° WNW
Cosmos 1459 Rocket 4.1 05:39:30 10° NNW 05:45:45 59° W 05:51:56 10° S
Cosmos 2123 Rocket 4.4 05:40:13 10° S 05:46:18 67° E 05:52:26 10° NNE
CENTAUR R/B 3.3 05:39:34 10° NW 05:47:21 76° NE 05:55:40 10° SE
Aureole 2 Rocket 2.3 05:48:29 10° NNW 05:52:07 88° WSW 05:55:22 10° SSE
ADEOS Rocket 3.6 05:45:10 10° N 05:52:12 50° WNW 05:58:34 10° SW
Cosmos 2344 4.4 05:46:26 14° W 05:52:57 41° NW 06:01:48 10° NE
Cosmos 2298 Rocket 4.0 05:52:56 10° SSW 05:58:13 73° WNW 06:03:34 10° NNE
CZ-4C R/B 4.4 05:57:13 11° W 05:58:13 11° WSW 06:00:24 10° WSW
Cosmos 1515 4.2 05:54:49 10° S 05:58:37 64° E 06:02:25 10° NNE
Cosmos 1666 3.6 05:56:11 10° NNW 05:59:28 27° W 06:02:43 10° SSW
COSMO-SKYMED 1 2.9 05:55:23 10° SSE 05:59:42 73° ENE 06:04:03 10° N
Tiangong 1 1.4 05:58:27 13° WSW 06:01:03 54° S 06:04:03 10° E
RESURS DK-1 3.1 05:58:57 10° SW 06:02:46 36° WNW 06:06:37 10° NNE
CZ-4B R/B 4.3 06:01:40 10° N 06:05:53 24° WNW 06:10:08 10° WSW
USA 129 2.9 06:04:44 10° SSW 06:06:19 19° W 06:07:50 10° NW
Okean O Rocket 3.5 06:04:27 10° NNW 06:06:33 13° WNW 06:08:38 10° W
Cosmos 292 Rocket 4.5 06:03:09 10° NW 06:07:29 33° WSW 06:11:48 10° SSW
NOSS 3-4 (A) 4.1 06:01:31 10° WSW 06:07:32 41° NW 06:13:47 10° NNE
NOSS 3-4 (C) 4.1 06:01:36 10° WSW 06:07:37 42° NW 06:13:53 10° NNE
BREEZE-M DEB (TANK) 1.8 06:05:34 10° WNW 06:08:10 66° SW 06:11:46 10° SE
Meteor 2-4 Rocket 4.4 06:05:20 10° SW 06:10:37 35° WNW 06:16:02 10° N
Cosmos 2237 Rocket 3.4 06:08:46 10° WNW 06:12:31 18° W 06:16:15 10° SW
SL-24 R/B 4.1 06:08:21 10° NNE 06:12:59 89° WNW 06:17:00 10° SSW
Cosmos 2150 Rocket 4.0 06:08:25 10° SSW 06:13:30 61° WNW 06:18:36 10° NNE
Cosmos 2098 Rocket 3.3 06:11:37 10° NNW 06:15:04 41° W 06:19:18 10° SSW
Cosmos 1340 3.9 06:14:51 10° S 06:18:29 48° E 06:22:10 10° NNE
Cosmos 1346 Rocket 4.1 06:15:51 10° WSW 06:18:52 21° WNW 06:21:56 10° NNW
CZ-4B R/B 4.2 06:15:03 10° N 06:18:53 43° WNW 06:22:31 10° SW
